{"data":{"norad_id":37843,"intl_designator":"2011-059A","name":"VIASAT-1","alt_names":[],"object_type":"PAYLOAD","status":"ACTIVE","operator":null,"country":"US","launch_date":"2011-10-19","launch_site_code":"TYMSC","launch_vehicle":null,"mission":null,"orbit_class":"UNKNOWN","rcs_meters":3.9811,"size_class":null,"mass_kg":null,"dimensions":null,"purposes":["comms"],"wikipedia_slug":null,"has_3d_model":false,"image_url":null,"decayed_at":null,"tle_current":{"epoch":"2026-09-20T03:52:57.238176Z","epoch_age_seconds":51237,"freshness":"FRESH","line1":"1 37843U 11059A   26263.16177359 -.00000028  00000+0  00000+0 0  9998","line2":"2 37843   0.0187 200.0232 0002225 326.8740 135.3133  1.00272608 48279","mean_motion":1.00272608,"eccentricity":0.0002225,"inclination_deg":0.0187,"raan_deg":200.0232,"arg_perigee_deg":326.874,"mean_anomaly_deg":135.3133,"bstar":0,"rev_number":4827,"period_min":1436.085117084,"perigee_km":35776.982644466,"apogee_km":35795.74584752,"semimajor_km":42164.501245993,"source":"CELESTRAK","updated_at":"2026-09-20T09:00:35.171529Z"}}}